Regional Weather Roundup
Issued by NWS

Home | Current Version | Previous Version | Text Only | Print | Product List | Glossary Off
Versions: 1 2 3 4 5 6 7 8 9 10 11 12 13 14 15 16 17 18 19 20 21 22 23 24 25 26 27 28 29 30 31 32 33 34 35 36 37 38 39 40 41 42 43 44 45 46 47 48 49 50

000
ASUS43 KFSD 291402
RWRSD

WEATHER ROUNDUP FOR SOUTH DAKOTA
NATIONAL WEATHER SERVICE SIOUX FALLS SD
900 AM CDT TUE JUL 29 2014

NOTE: "FAIR" INDICATES FEW OR NO CLOUDS BELOW 12,000 FEET WITH NO
SIGNIFICANT WEATHER AND/OR OBSTRUCTIONS TO VISIBILITY.


SDZ001>005-009-010-012>017-291500-
NORTHWEST AND NORTH CENTRAL SOUTH DAKOTA

CITY           SKY/WX    TMP DP  RH WIND       PRES   REMARKS
BUFFALO          N/A     63  53  70 S5        30.19F
FAITH            N/A     66  52  60 SW5       30.25S
MOBRIDGE       SUNNY     62  57  83 CALM      30.22S
$$

SDZ012>016-024>037-041>051-057-063-072>074-291500-
SOUTHWEST AND SOUTH CENTRAL SOUTH DAKOTA

CITY           SKY/WX    TMP DP  RH WIND       PRES   REMARKS
RAPID CTY ARPT CLOUDY    62  55  77 CALM      30.26F
PIERRE         SUNNY     63  54  72 CALM      30.22F
CUSTER         CLOUDY    58  49  72 CALM      30.35S
ELLSWORTH AFB  CLOUDY    64  53  68 SE5       30.25F
PHILIP         PTSUNNY   62  51  67 CALM      30.24S
PINE RIDGE     PTSUNNY   64  58  80 CALM      30.28R
WINNER         FAIR      65  54  67 CALM      30.24S
$$

SDZ004>011-016>023-039-040-291500-
NORTHEAST SOUTH DAKOTA

CITY           SKY/WX    TMP DP  RH WIND       PRES   REMARKS
ABERDEEN       SUNNY     63  53  70 CALM      30.23S
WATERTOWN      SUNNY     63  56  78 NW6       30.23R
SISSETON         N/A     67  58  72 N8        30.20S
$$

SDZ017-020-022-023-036>040-048>070-291500-
SOUTHEAST SOUTH DAKOTA

CITY           SKY/WX    TMP DP  RH WIND       PRES   REMARKS
SIOUX FALLS    MOSUNNY   64  55  72 NW3       30.23S
HURON          CLOUDY    63  54  72 CALM      30.23S
CHAMBERLAIN    SUNNY     63  55  76 CALM      30.24S
MITCHELL       MOSUNNY   63  56  78 CALM      30.24S
YANKTON        PTSUNNY   61  57  88 CALM      30.23F
$$

ABBREVIATIONS USED IN REMARKS
   TC - TEMPERATURE IN CELSIUS
  WCI - WIND CHILL INDEX
   HX - HEAT INDEX
  VSB - VISIBILITY



USA.gov is the U.S. government's official web portal to all federal, state and local government web resources and services.